Location: Kailua
(21.4020°N, 157.7390°W)
Time: 03:14:21
(UTC-10:00)

Cosmos 2221 Rocket - Visible Passes

Search period start: 01 November 2014 00:00
Search period end: 11 November 2014 00:00
Orbit: 621 x 651 km, 82.5° (Epoch: 31 October)

Date Brightness Start Highest point End Pass type
(mag) Time Alt. Az. Time Alt. Az. Time Alt. Az.
01 Nov 6.0 04:03:22 20° ENE 04:03:36 20° E 04:06:49 10° SE visible
01 Nov 4.8 05:41:00 19° W 05:41:35 20° W 05:44:47 10° SW visible
02 Nov 4.9 04:27:37 36° SE 04:27:37 36° SE 04:30:32 10° SSE visible
03 Nov 5.3 04:51:36 22° S 04:51:36 22° S 04:53:11 10° S visible
